Date String (YYYY-MM-DD hh:mm:ss) UTC,Instrument flags,absolute air pressure of the measurement (hPa),sample flow rate (lpm),inlet stack bypass flow (lpm),air temperature of the measurement (°C),ambient temperature measured by the external sensor (°C),aerosol sample conditioner tube jacket temperature (°C),OPC LED temperature (°C),internal box temperature (°C),relative humidity of the measurement (%),span deviation,mass concentration of particles derived from Lorenz-Mie calculation of OPC scattering (μg/m³),mass concentration of particles derived from Lorenz-Mie calculation of OPC scattering (μg/m³),mass concentration of particles derived from Lorenz-Mie calculation of OPC scattering (μg/m³)
DateTimeUTC,F1_M11,P_M11,Q1_M11,Q2_M11,T1_M11,T2_M11,T3_M11,T4_M11,T5_M11,U1_M11,ZSPAN_M11,X0_M11,X2_M11,X1_M11
2023-08-14 18:00:00,SystemResetWarning,0840.7,5.00,000.00,029.0,027.3,000.0,037.5,030.7,23.5,0000.0,0008.84,0004.02,0003.60
2023-08-14 18:01:00,SystemResetWarning,0840.7,5.00,000.00,029.0,027.5,000.0,037.5,030.7,23.6,0000.0,0008.58,0004.05,0003.62
2023-08-14 18:02:00,SystemResetWarning,0840.8,5.00,000.00,029.0,027.7,000.0,037.5,030.8,23.5,0000.0,0008.88,0004.07,0003.65
2023-08-14 18:03:00,SystemResetWarning,0840.7,5.00,000.00,029.1,027.8,000.0,037.5,030.8,23.3,0000.0,0009.49,0004.09,0003.68
2023-08-14 18:04:00,SystemResetWarning,0840.8,5.00,000.00,029.1,028.0,000.0,037.5,030.9,23.2,0000.0,0010.00,0004.13,0003.70
2023-08-14 18:05:00,SystemResetWarning,0840.8,4.99,000.00,029.2,028.1,000.0,037.6,030.9,23.2,0000.3,0010.18,0004.18,0003.71
2023-08-14 18:06:00,SystemResetWarning,0840.7,4.98,000.00,029.2,027.2,000.0,037.5,030.8,23.6,0000.3,0009.94,0004.20,0003.74
2023-08-14 18:07:00,SystemResetWarning,0840.7,5.01,000.00,029.1,025.3,000.0,037.4,030.4,23.3,0000.4,0010.09,0004.24,0003.77
2023-08-14 18:08:00,SystemResetWarning,0840.6,5.00,000.00,029.0,024.7,000.0,037.3,030.2,23.4,0000.4,0010.40,0004.31,0003.81
2023-08-14 18:09:00,SystemResetWarning,0840.7,5.01,000.00,028.9,025.0,000.0,037.3,030.2,24.0,0000.6,0010.85,0004.40,0003.87
2023-08-14 18:10:00,SystemResetWarning,0840.7,5.00,000.00,028.9,025.4,000.0,037.3,030.2,24.1,0000.4,0011.17,0004.47,0003.92
2023-08-14 18:11:00,SystemResetWarning,0840.7,5.00,000.00,028.9,025.8,000.0,037.3,030.3,23.8,0000.4,0011.08,0004.47,0003.96
2023-08-14 18:12:00,SystemResetWarning,0840.6,4.99,000.00,028.9,026.3,000.0,037.4,030.4,24.0,0000.1,0011.94,0004.48,0003.97
2023-08-14 18:13:00,SystemResetWarning,0840.7,5.00,000.00,028.9,026.6,000.0,037.4,030.5,23.9,0000.1,0012.21,0004.49,0003.99
2023-08-14 18:14:00,SystemResetWarning,0840.6,5.00,000.00,028.9,026.9,000.0,037.4,030.6,23.6,0000.4,0011.95,0004.52,0004.00
2023-08-14 18:15:00,SystemResetWarning,0840.6,5.00,000.00,028.9,027.2,000.0,037.4,030.6,23.9,0000.9,0011.54,0004.55,0004.02
2023-08-14 18:16:00,SystemResetWarning,0840.6,5.00,000.00,029.0,027.4,000.0,037.4,030.7,23.8,0000.5,0012.00,0004.53,0004.02
2023-08-14 18:17:00,SystemResetWarning,0840.5,5.01,000.00,029.0,027.6,000.0,037.4,030.7,24.0,0000.2,0011.97,0004.52,0004.03
2023-08-14 18:18:00,SystemResetWarning,0840.6,5.00,000.00,029.0,027.7,000.0,037.5,030.8,23.7,0000.8,0011.86,0004.53,0004.03
2023-08-14 18:19:00,SystemResetWarning,0840.6,5.00,000.00,029.1,027.9,000.0,037.5,030.9,23.7,0000.6,0011.10,0004.52,0004.02
2023-08-14 18:20:00,SystemResetWarning,0840.6,5.00,000.00,029.1,028.0,000.0,037.5,030.9,24.0,0000.1,0010.87,0004.49,0004.01
2023-08-14 18:21:00,SystemResetWarning,0840.6,4.99,000.00,029.2,027.8,000.0,037.5,030.9,23.7,0000.6,0010.81,0004.47,0003.99
2023-08-14 18:22:00,SystemResetWarning,0840.6,4.99,000.00,029.1,026.2,000.0,037.4,030.6,23.7,0000.1,0011.17,0004.48,0003.99
2023-08-14 18:23:00,SystemResetWarning,0840.6,5.02,000.00,029.1,025.7,000.0,037.3,030.4,24.0,-000.2,0010.05,0004.48,0004.00
2023-08-14 18:24:00,SystemResetWarning,0840.6,4.99,000.00,029.0,025.9,000.0,037.3,030.4,24.3,-000.5,0009.47,0004.48,0004.01
2023-08-14 18:25:00,SystemResetWarning,0840.6,4.99,000.00,029.0,026.2,000.0,037.4,030.4,24.3,-000.6,0009.55,0004.48,0004.01
2023-08-14 18:26:00,SystemResetWarning,0840.6,5.00,000.00,029.0,026.5,000.0,037.4,030.5,23.5,-000.9,0009.88,0004.50,0004.02
2023-08-14 18:27:00,SystemResetWarning,0840.5,5.01,000.00,029.0,026.8,000.0,037.4,030.6,23.3,-000.5,0009.43,0004.53,0004.04
2023-08-14 18:28:00,SystemResetWarning,0840.5,5.01,000.00,029.0,027.1,000.0,037.5,030.7,23.8,-000.1,0010.09,0004.59,0004.05
2023-08-14 18:29:00,SystemResetWarning,0840.5,5.00,000.00,029.0,027.3,000.0,037.5,030.7,23.6,-000.1,0010.94,0004.62,0004.07
2023-08-14 18:30:00,SystemResetWarning,0840.5,4.99,000.00,029.1,027.5,000.0,037.5,030.8,24.0,0000.1,0011.01,0004.64,0004.10
2023-08-14 18:31:00,SystemResetWarning,0840.5,4.99,000.00,029.1,027.7,000.0,037.5,030.8,23.8,0000.6,0011.62,0004.72,0004.14
2023-08-14 18:32:00,SystemResetWarning,0840.5,4.99,000.00,029.2,027.9,000.0,037.5,030.9,23.4,0000.0,0011.89,0004.79,0004.17
2023-08-14 18:33:00,SystemResetWarning,0840.5,5.00,000.00,029.2,027.9,000.0,037.6,030.9,23.6,0000.3,0012.38,0004.82,0004.21
2023-08-14 18:34:00,SystemResetWarning,0840.5,5.00,000.00,029.2,026.6,000.0,037.5,030.7,23.2,0000.0,0012.45,0004.88,0004.25
2023-08-14 18:35:00,SystemResetWarning,0840.5,5.01,000.00,029.1,025.7,000.0,037.3,030.5,23.5,0000.0,0013.06,0004.94,0004.27
2023-08-14 18:36:00,SystemResetWarning,0840.4,5.00,000.00,029.1,025.8,000.0,037.3,030.4,23.2,0000.0,0013.52,0004.98,0004.31
2023-08-14 18:37:00,SystemResetWarning,0840.4,4.99,000.00,029.0,026.1,000.0,037.4,030.4,23.4,0000.0,0013.17,0005.01,0004.33
2023-08-14 18:38:00,SystemResetWarning,0840.5,4.99,000.00,029.0,026.4,000.0,037.4,030.5,24.2,0000.0,0013.64,0005.07,0004.35
2023-08-14 18:39:00,SystemResetWarning,0840.5,5.00,000.00,029.0,026.8,000.0,037.5,030.6,23.4,0001.0,0013.55,0005.12,0004.38
2023-08-14 18:40:00,SystemResetWarning,0840.4,5.01,000.00,029.0,027.1,000.0,037.5,030.7,23.0,0002.2,0012.85,0005.14,0004.39
2023-08-14 18:41:00,SystemResetWarning,0840.4,5.01,000.00,029.1,027.3,000.0,037.5,030.7,23.0,0001.9,0012.78,0005.16,0004.39
2023-08-14 18:42:00,SystemResetWarning,0840.4,4.99,000.00,029.1,027.5,000.0,037.5,030.8,23.2,0001.5,0012.08,0005.15,0004.38
2023-08-14 18:43:00,SystemResetWarning,0840.4,4.99,000.00,029.1,027.7,000.0,037.5,030.9,22.7,0001.1,0011.89,0005.12,0004.38
2023-08-14 18:44:00,SystemResetWarning,0840.4,4.99,000.00,029.2,027.9,000.0,037.6,030.9,22.7,0001.5,0012.05,0005.13,0004.39
2023-08-14 18:45:00,SystemResetWarning,0840.4,5.00,000.00,029.2,027.7,000.0,037.5,030.9,23.0,0001.4,0011.84,0005.13,0004.39
2023-08-14 18:46:00,SystemResetWarning,0840.5,5.00,000.00,029.2,026.1,000.0,037.4,030.6,23.3,0000.9,0011.54,0005.13,0004.40
2023-08-14 18:47:00,SystemResetWarning,0840.4,5.01,000.00,029.1,025.6,000.0,037.3,030.5,22.9,0000.5,0011.26,0005.15,0004.39
2023-08-14 18:48:00,SystemResetWarning,0840.5,5.01,000.00,029.1,025.8,000.0,037.3,030.4,23.1,0000.0,0011.29,0005.13,0004.38
2023-08-14 18:49:00,SystemResetWarning,0840.4,4.99,000.00,029.0,026.1,000.0,037.4,030.4,23.7,-000.1,0011.02,0005.13,0004.40
2023-08-14 18:50:00,SystemResetWarning,0840.5,5.00,000.00,029.0,026.5,000.0,037.4,030.5,23.5,0000.1,0011.11,0005.13,0004.41
2023-08-14 18:51:00,SystemResetWarning,0840.4,5.00,000.00,029.0,026.8,000.0,037.5,030.6,23.6,0000.0,0011.11,0005.13,0004.42
2023-08-14 18:52:00,SystemResetWarning,0840.4,5.00,000.00,029.0,027.1,000.0,037.5,030.7,23.5,0000.0,0011.23,0005.17,0004.45
2023-08-14 18:53:00,SystemResetWarning,0840.4,5.01,000.00,029.1,027.4,000.0,037.5,030.8,23.2,0000.0,0011.30,0005.19,0004.46
2023-08-14 18:54:00,SystemResetWarning,0840.4,4.99,000.00,029.1,027.6,000.0,037.5,030.8,23.5,0000.0,0011.12,0005.20,0004.48
2023-08-14 18:55:00,SystemResetWarning,0840.4,5.00,000.00,029.2,027.8,000.0,037.6,030.9,23.3,0000.0,0010.39,0005.19,0004.48
2023-08-14 18:56:00,SystemResetWarning,0840.3,5.00,000.00,029.2,027.8,000.0,037.6,030.9,23.2,0000.0,0010.30,0005.18,0004.47
2023-08-14 18:57:00,SystemResetWarning,0840.3,4.98,000.00,029.2,026.4,000.0,037.4,030.6,23.3,0000.0,0010.47,0005.18,0004.47
2023-08-14 18:58:00,SystemResetWarning,0840.2,5.01,000.00,029.1,024.7,000.0,037.3,030.3,23.1,0000.0,0010.35,0005.17,0004.47
2023-08-14 18:59:00,SystemResetWarning,0840.2,5.00,000.00,029.0,024.7,000.0,037.2,030.1,23.1,0000.0,0010.24,0005.18,0004.47
